This is the latest recevied weather packets stored in our database for station/object K5IDL. If no packets are shown the sender has not sent any weather packets the latest 10 day(s).
| Time | Temp. | Humidity | Pressure | Rain* | Wind** | Luminosity | Snow |
|---|---|---|---|---|---|---|---|
| 1777912852 | 25.56° C | 46% | 1013.1 hPa | 0 mm | - | 536 W/m² | - |
| 1777912548 | 25° C | 47% | 1013.4 hPa | 0 mm | - | 573 W/m² | - |
| 1777912245 | 25° C | 47% | 1013.4 hPa | 0 mm | - | 473 W/m² | - |
| 1777911941 | 25° C | 49% | 1013.4 hPa | 0 mm | - | 466 W/m² | - |
| 1777911637 | 25° C | 48% | 1013.4 hPa | 0 mm | - | 528 W/m² | - |
| 1777911333 | 25° C | 49% | 1013.4 hPa | 0 mm | - | 448 W/m² | - |
| 1777911032 | 24.44° C | 50% | 1013.3 hPa | 0 mm | - | 472 W/m² | - |
| 1777910729 | 23.89° C | 51% | 1013.5 hPa | 0 mm | - | 483 W/m² | - |
| 1777910425 | 24.44° C | 50% | 1013.4 hPa | 0 mm | - | 539 W/m² | - |
| 1777910122 | 23.89° C | 51% | 1013.6 hPa | 0 mm | - | 474 W/m² | - |
| 1777909820 | 23.89° C | 52% | 1013.4 hPa | 0 mm | - | 538 W/m² | - |
| 1777909516 | 23.89° C | 52% | 1013.6 hPa | 0 mm | - | 534 W/m² | - |
| 1777909213 | 23.89° C | 52% | 1013.7 hPa | 0 mm | - | 527 W/m² | - |
| 1777908911 | 23.33° C | 52% | 1013.8 hPa | 0 mm | - | 497 W/m² | - |
| 1777908609 | 23.33° C | 53% | 1013.7 hPa | 0 mm | - | 478 W/m² | - |
| 1777908305 | 22.78° C | 55% | 1013.8 hPa | 0 mm | - | 359 W/m² | - |
| 1777908001 | 23.33° C | 54% | 1013.7 hPa | 0 mm | - | 349 W/m² | - |
| 1777907697 | 23.89° C | 53% | 1013.9 hPa | 0 mm | - | 418 W/m² | - |
| 1777907392 | 22.78° C | 55% | 1014 hPa | 0 mm | - | 443 W/m² | - |
| 1777907089 | 22.78° C | 55% | 1014 hPa | 0 mm | - | 424 W/m² | - |
| 1777906787 | 22.78° C | 57% | 1013.9 hPa | 0 mm | - | 391 W/m² | - |
| 1777906484 | 22.22° C | 58% | 1013.8 hPa | 0 mm | - | 385 W/m² | - |
| 1777906180 | 22.22° C | 58% | 1013.8 hPa | 0 mm | - | 356 W/m² | - |
| 1777905877 | 21.67° C | 59% | 1013.8 hPa | 0 mm | - | 315 W/m² | - |
| 1777905574 | 21.11° C | 60% | 1013.9 hPa | 0 mm | - | 254 W/m² | - |
* Rain latest hour (hover to see other rain measurements)
** Current wind speed in m/s (hover to see current wind gust speed)